Content
SEND FEEDBACK

Daily
Averages
Monthly
Summary
Malaysia

ALOR SETAR, MALAYSIA


Home > Asia > Malaysia
Elevation: 13 feet     Latitude: 06 11N     Longitude: 100 24E

WEATHER
 
SELECT A DAY
Number of Records: 94,595;   Date Range: 6/24/00 - 11/24/14
 
SHARE

PRINT THIS DATA

[ ← Previous Day ]
WEATHER ALMANAC - JUNE 24, 2013
[ Next Day → ]
[ °C ]   °F
We're sorry. There is no daily almanac available for Alor Setar, Malaysia on June 24, 2013.
WEATHER BY HOUR - JUNE 24, 2013
[ °C ]   °F
Local TimeTemperatureDewpointHumidityBarometerVisibilityWind DirectionWind SpeedGust SpeedPrecipitationEventsConditions
1:00 AM82.4 °F78.8 °F89 %29.80 in6.2 miNE (50°)1.2 mphMostly Cloudy
2:00 AM82.4 °F78.8 °F89 %29.77 in6.2 miNorth (10°)1.2 mphMostly Cloudy
3:00 AM80.6 °F78.8 °F94 %29.77 in6.2 miNNE (30°)2.3 mphMostly Cloudy
4:00 AM80.6 °F77.0 °F89 %29.77 in5.0 miNE (50°)1.2 mphMostly Cloudy
5:00 AM80.6 °F77.0 °F89 %29.77 in5.0 miSSE (150°)2.3 mphMostly Cloudy
6:00 AM80.6 °F77.0 °F89 %29.77 in5.0 miEast (80°)2.3 mphMostly Cloudy
7:00 AM78.8 °F77.0 °F94 %29.77 in5.0 miEast (90°)3.5 mphMostly Cloudy
8:00 AM80.6 °F77.0 °F89 %29.80 in5.0 miCalmMostly Cloudy
9:00 AM84.2 °F78.8 °F84 %29.83 in5.0 miEast (100°)3.5 mphMostly Cloudy
10:00 AM86.0 °F78.8 °F79 %29.83 in5.0 miNorth (360°)1.2 mphMostly Cloudy
11:00 AM87.8 °F80.6 °F79 %29.83 in6.2 miWest (270°)1.2 mphMostly Cloudy
12:00 PM89.6 °F80.6 °F75 %29.83 in5.0 miWNW (290°)3.5 mphMostly Cloudy
1:00 PM89.6 °F77.0 °F66 %29.80 in5.6 miSSW (200°)3.5 mphMostly Cloudy
2:00 PM91.4 °F78.8 °F66 %29.77 in6.2 miSSE (160°)4.6 mphMostly Cloudy
3:00 PM91.4 °F82.4 °F75 %29.74 in6.2 miWSW (250°)3.5 mphMostly Cloudy
4:00 PM91.4 °F78.8 °F66 %29.71 in6.2 miWest (260°)6.9 mphMostly Cloudy
5:00 PM89.6 °F78.8 °F70 %29.71 in6.2 miWest (270°)8.1 mphMostly Cloudy
6:00 PM87.8 °F80.6 °F79 %29.71 in6.2 miWest (260°)5.8 mphMostly Cloudy
7:00 PM87.8 °F78.8 °F75 %29.74 in6.2 miWest (280°)3.5 mphMostly Cloudy
8:00 PM86.0 °F77.0 °F74 %29.77 in6.2 miNW (310°)2.3 mphMostly Cloudy
9:00 PM86.0 °F78.8 °F79 %29.80 in6.2 miCalmMostly Cloudy
10:00 PM84.2 °F80.6 °F89 %29.80 in6.2 miCalmMostly Cloudy
11:00 PM82.4 °F78.8 °F89 %29.83 in6.2 miENE (70°)1.2 mphMostly Cloudy
Hourly data recorded from WMKA, located miles away from Alor Setar, Malaysia







STORIES FROM OUR PARTNERS